Dewpoint
27 26 25 24 24 24 24 23 24 27 30 31 31 30 30 30 30 30 30 30 30 30 30 31 32 32 32
26 25 24 24 23 23 23 23 24 26 29 29 28 29 29 30 29 28 28 29 29 29 32 29 29 29 32
25 25 25 24 23 23 23 24 24 25 27 25 27 27 29 28 27 27 28 29 29 30 28 27 28 29 29
23 23 24 25 23 23 23 23 23 24 24 23 25 25 26 25 25 26 28 28 31 29 27 27 28 30 30
22 23 23 23 22 24 23 23 22 24 22 22 22 22 22 23 23 26 26 28 25 26 27 27 28 29 28
23 22 23 23 23 23 23 22 20 22 22 21 21 21 21 21 23 26 27 25 24 25 26 26 26 27 28
23 23 23 23 23 25 25 24 22 22 22 19 21 21 20 20 23 26 25 24 24 24 25 25 27 27 25
25 24 25 26 25 24 22 22 22 22 21 21 21 19 20 20 22 25 22 23 23 24 24 27 24 24 24
28 27 27 26 25 22 21 20 18 18 23 19 19 20 19 19 22 22 21 22 22 23 25 24 23 23 24
22 22 22 23 24 23 22 20 19 17 20 21 21 20 17 20 19 20 20 21 22 23 24 22 23 24 24
21 21 22 22 22 22 22 21 21 20 21 23 21 19 20 18 19 19 20 20 21 21 23 21 23 23 23
20 19 19 20 20 22 22 22 23 22 23 24 21 20 19 17 17 18 18 20 20 21 20 21 22 22 23
18 18 19 21 23 22 22 22 23 22 21 22 21 21 20 18 18 18 19 18 20 19 20 20 20 21 21
20 21 21 21 20 21 20 21 20 19 21 21 22 21 20 20 20 18 18 17 18 20 20 20 19 20 20
20 20 19 19 19 21 20 19 18 18 18 20 20 21 21 20 18 17 17 18 19 20 20 18 18 19 20
20 19 20 19 20 20 18 17 16 17 18 18 18 19 17 16 19 16 18 18 19 19 18 18 17 18 20
20 20 20 19 18 17 17 16 16 17 19 17 17 17 15 14 15 18 18 18 19 17 17 18 18 19 20
Wind_Speed
3 2 2 3 4 6 7 8 11 12 11 8 12 16 17 16 17 19 20 20 21 22 24 26 25 27 29
3 3 4 4 2 5 8 7 10 9 7 12 17 17 16 14 17 19 20 20 20 22 23 24 28 28 30
4 2 1 3 3 5 7 7 9 8 8 17 17 16 14 15 19 21 19 20 21 19 24 27 28 30 31
5 3 3 2 2 6 9 9 10 3 8 15 15 15 14 19 20 19 19 19 19 24 28 28 30 29 31
6 3 1 2 5 6 5 11 8 3 10 9 11 12 13 16 15 18 18 18 23 26 26 29 28 31 30
3 2 1 1 2 6 8 12 7 3 15 15 8 12 14 12 19 18 17 20 27 27 28 29 29 29 29
5 2 1 0 1 6 6 7 7 12 10 11 5 14 15 18 19 17 17 26 25 28 28 27 27 29 31
4 1 1 2 3 3 4 8 10 8 4 6 8 13 18 18 17 15 23 24 26 27 27 25 29 30 31
8 8 7 5 6 6 8 10 8 4 0 8 7 15 10 12 12 17 24 24 25 26 23 27 29 30 21
6 7 9 9 8 6 6 8 7 7 3 12 7 9 10 5 14 15 15 19 26 24 22 28 28 19 18
5 4 4 5 6 6 7 6 7 7 11 9 7 9 6 14 11 17 12 18 18 18 21 26 27 24 18
4 4 4 5 6 7 8 8 7 10 13 9 7 12 12 18 14 13 18 17 14 14 18 21 24 24 24
2 3 4 5 7 7 9 10 11 11 9 10 10 14 12 14 14 17 17 14 14 18 16 19 19 19 20
1 3 4 4 7 8 9 11 10 9 10 11 12 11 14 15 13 19 16 9 19 19 18 19 18 17 17
1 4 6 6 7 8 9 9 10 11 13 13 11 11 14 16 17 15 17 18 17 19 20 20 19 17 17
4 6 7 9 9 10 8 11 13 13 13 12 13 17 11 8 10 15 14 18 19 19 18 19 20 20 17
4 6 7 9 10 12 13 14 14 12 14 14 15 14 16 20 12 8 19 20 19 19 17 17 19 24 18
Wind_Direction
94 99 82 58 34 9 356 350 347 331 329 343 353 337 330 327 327 327 322 318 314 312 308 312 309 311 307
124 97 77 40 356 354 348 335 326 325 355 360 344 337 328 326 329 326 321 314 310 305 312 314 311 311 310
116 72 110 26 351 344 317 324 339 347 7 350 343 338 334 330 329 326 318 313 305 315 315 314 314 309 307
104 113 66 13 328 334 340 342 338 353 343 341 337 334 335 333 330 322 316 312 320 323 315 318 311 309 310
89 76 59 358 0 336 327 336 326 297 322 324 328 325 320 319 316 315 319 318 328 320 320 315 315 312 309
127 124 109 53 350 355 342 349 346 319 337 322 322 323 315 313 320 324 321 324 326 323 320 316 315 313 313
117 103 31 80 333 331 342 332 301 306 320 307 323 322 319 320 326 329 327 328 327 325 321 320 320 319 317
96 134 259 119 83 25 340 315 295 271 302 281 314 314 318 311 320 326 329 327 327 324 322 318 322 319 317
86 70 60 51 57 31 10 360 335 302 253 339 315 317 303 294 307 318 323 322 323 324 317 325 324 323 321
73 66 56 37 23 12 348 346 331 325 322 341 325 354 319 283 314 310 312 312 321 322 319 326 326 326 318
94 80 53 31 5 350 341 331 322 288 287 327 303 312 263 304 311 310 312 312 311 312 313 324 325 328 324
81 40 357 347 335 321 316 327 312 281 290 297 282 296 299 307 303 311 312 310 305 306 316 319 321 322 322
47 351 323 308 301 322 327 334 321 315 308 302 288 292 291 287 291 300 316 313 308 318 316 322 318 314 313
181 273 293 333 347 343 336 341 330 319 304 296 297 294 299 289 283 292 298 298 310 313 316 318 316 309 304
13 356 357 355 348 338 344 342 336 315 317 320 313 296 283 271 294 291 299 309 312 316 321 320 317 313 309
13 5 355 347 335 344 344 337 331 324 318 314 326 338 322 299 257 295 308 315 317 321 322 319 318 317 316
351 344 346 340 343 336 340 334 330 319 319 321 326 332 326 330 302 309 321 316 317 322 322 316 310 308 312